Wind_Speed
21 21 20 19 16 13 11 9 6 5 6 6 6 7 9 10 10 9 8 7 6 6 6 7 7 6 6 5 5 5 6 6 7 8 8 9 10 11 13 14 15 15 16 16 17 17 18 18 18
22 22 22 21 18 14 12 10 8 7 6 6 6 7 9 11 10 9 8 7 6 6 6 6 6 5 5 4 4 5 5 5 6 6 7 8 9 9 11 12 13 14 15 16 16 17 17 17 18
22 22 23 22 19 15 13 12 10 7 5 4 5 7 10 11 10 9 8 7 6 6 6 6 6 5 5 4 4 4 4 4 5 6 6 7 7 8 9 10 11 12 13 14 15 16 16 17 17
22 22 23 23 20 17 15 14 12 9 5 4 5 7 9 10 9 7 6 6 6 6 5 5 5 5 4 4 4 4 4 4 4 5 5 6 7 7 8 9 10 11 12 13 14 15 16 16 16
21 21 22 21 20 18 17 16 14 11 7 4 4 7 8 9 8 7 6 5 6 6 6 6 6 5 5 5 5 4 3 3 4 4 5 5 6 7 7 8 9 11 12 13 14 15 15 15 15
18 18 19 19 21 20 20 19 16 12 7 3 2 6 8 8 8 7 6 5 6 7 7 7 7 7 7 6 6 5 4 4 4 4 4 5 5 6 7 8 9 10 11 13 14 15 15 15 15
15 16 17 20 23 23 23 22 18 14 9 4 1 4 6 8 8 7 7 7 7 8 8 8 9 9 8 8 7 6 6 5 5 5 5 5 5 6 7 8 9 10 11 13 14 15 15 15 15
14 16 19 22 24 25 26 24 20 15 10 6 1 2 5 6 7 7 8 8 9 10 11 11 12 11 10 10 9 8 7 6 6 6 5 5 5 6 7 8 9 10 11 12 14 15 15 16 16
13 16 20 24 26 28 28 26 22 16 12 8 3 1 4 5 6 7 8 9 10 11 12 13 13 13 12 11 10 9 8 7 6 6 6 6 6 6 7 8 8 10 11 12 13 14 15 16 16
12 15 21 27 29 31 30 27 23 19 14 10 5 2 2 2 4 7 8 10 10 11 13 14 14 13 13 12 11 10 9 8 7 7 7 7 7 7 7 8 9 10 11 12 13 14 15 15 16
13 17 25 29 31 31 31 28 23 20 17 12 8 6 4 1 3 6 8 9 11 12 14 14 14 14 14 13 12 11 10 9 9 8 8 8 8 8 8 9 9 10 11 12 14 14 15 16 17
16 21 27 29 31 31 31 28 24 21 18 16 12 10 8 5 4 7 9 9 12 14 15 15 15 15 14 14 13 13 12 11 11 11 11 10 10 10 10 10 11 12 13 14 15 16 17 18 19
19 25 29 30 31 30 29 27 25 22 20 18 15 12 10 9 7 8 9 10 12 14 15 16 16 17 16 16 15 14 13 13 13 13 13 13 13 13 13 13 14 15 16 17 18 19 20 21 22
24 29 31 30 30 30 29 27 24 23 21 19 17 15 13 11 10 10 10 11 13 14 15 17 18 19 19 18 17 17 16 15 15 15 15 15 15 16 16 17 17 18 19 20 21 22 24 25 26
28 30 31 31 31 30 28 27 26 24 22 20 19 18 16 15 14 13 12 12 14 15 15 17 19 20 21 21 20 20 19 19 19 19 18 18 19 19 20 20 21 22 23 24 25 26 27 28 29
30 31 32 32 33 32 29 28 27 25 24 23 22 21 20 19 17 16 14 13 15 16 17 20 21 22 23 23 23 22 22 23 24 23 22 22 22 23 23 24 24 26 27 28 29 29 29 30 31
32 32 33 34 34 34 32 29 29 28 27 27 26 25 24 23 21 19 17 16 16 18 20 22 23 24 25 25 25 24 25 26 26 26 25 25 25 25 26 27 28 29 30 30 31 31 31 31 33
32 32 34 36 37 36 35 32 31 32 32 31 30 29 28 27 24 22 20 19 19 19 21 22 24 26 27 28 29 29 29 28 29 28 27 28 27 28 28 29 30 30 30 30 31 31 32 32 34
33 34 35 36 39 40 39 36 34 35 35 34 33 31 29 28 26 25 23 21 21 21 21 23 25 28 29 31 32 33 32 31 30 29 28 28 29 29 29 30 30 30 31 32 32 32 33 34 36
35 35 34 34 39 43 43 40 37 36 37 37 35 33 31 29 28 27 25 23 22 22 23 25 27 29 32 34 35 35 35 34 33 31 27 27 28 28 28 29 30 31 32 33 35 36 36 38 39
35 34 33 34 38 42 43 43 40 39 39 37 36 34 32 30 29 28 28 26 25 24 26 27 30 32 35 36 37 38 36 34 34 29 27 27 27 28 29 29 29 32 34 35 37 38 39 41 42
34 32 32 33 36 39 42 43 40 39 38 37 36 35 33 32 31 30 30 28 28 27 29 31 33 36 37 37 38 40 38 37 35 31 29 28 28 28 29 30 33 34 36 38 39 41 43 44 45
31 31 32 34 36 38 40 41 38 36 37 36 36 36 35 34 33 32 32 31 31 31 32 34 36 38 38 39 40 41 40 39 35 32 31 30 30 31 32 33 35 37 39 41 43 45 47 48 49
32 33 34 35 36 37 36 38 38 35 35 36 37 37 36 36 35 34 34 34 34 34 35 38 39 41 41 43 43 42 41 38 37 36 35 33 34 35 35 37 39 41 43 46 48 49 50 51 53
33 33 34 34 35 34 32 35 36 35 35 36 36 36 36 36 36 36 35 36 36 36 38 40 41 42 43 43 43 43 42 40 39 39 38 37 38 39 40 42 44 46 48 50 52 53 54 56 57
31 32 33 32 31 30 30 33 33 34 34 34 35 35 35 35 35 35 35 36 37 38 39 39 40 41 42 41 42 41 41 40 39 39 40 41 42 44 46 47 49 51 53 55 56 57 59 60 62
31 32 30 30 29 28 29 31 32 32 32 32 32 33 33 33 33 33 34 34 35 35 36 37 39 39 40 41 42 42 43 42 42 43 43 44 47 49 51 52 54 55 57 59 60 61 62 63 64
31 32 30 30 29 28 28 28 28 29 29 30 30 30 31 31 31 31 31 31 32 33 34 36 38 39 41 42 43 44 44 44 45 46 48 49 52 54 55 57 58 59 61 62 63 64 64 65 66
32 32 32 31 29 28 27 26 26 27 28 29 30 30 30 30 30 30 30 31 33 34 36 37 40 41 43 44 45 47 47 48 49 50 52 54 56 58 59 59 60 61 61 62 63 64 64 64 65
33 33 32 31 29 28 27 26 26 26 27 28 29 30 31 31 32 32 32 33 35 37 38 40 42 44 45 47 49 51 52 53 54 55 56 58 59 60 60 60 60 61 61 62 63 63 63 63 64
Wind_Direction
212 205 202 201 204 213 228 245 259 280 307 336 7 14 11 6 0 353 345 337 328 322 321 316 309 302 301 303 302 298 296 296 293 290 286 282 278 276 274 275 276 277 279 281 283 285 285 286 286
216 210 208 204 208 214 231 244 252 273 296 327 0 12 12 9 3 357 352 351 351 347 339 329 319 314 314 315 315 313 311 308 305 302 299 296 291 286 282 280 280 281 282 283 285 286 286 286 286
220 214 211 206 207 216 233 243 249 260 289 322 357 12 15 11 5 357 355 358 3 1 348 336 328 324 328 330 326 323 320 317 315 312 311 310 307 303 298 295 292 291 290 289 289 288 288 288 288
224 218 214 208 205 215 233 244 245 254 268 320 359 15 19 15 7 359 359 3 6 1 351 345 338 335 339 340 337 334 332 331 329 327 325 323 322 319 315 309 305 301 298 296 296 295 294 294 292
228 222 217 206 203 215 230 240 247 256 266 303 355 21 22 18 13 4 2 10 9 2 356 351 348 343 341 339 334 328 330 330 330 328 327 326 325 324 322 317 312 306 303 302 301 300 299 299 297
233 225 216 202 201 214 227 235 245 253 257 267 344 20 24 24 17 12 15 20 13 5 356 352 352 350 345 335 327 323 321 317 313 313 315 319 320 318 316 314 310 307 304 303 301 300 300 299 299
232 220 205 196 200 211 224 232 238 246 250 248 325 21 29 32 25 22 22 23 18 10 4 0 360 356 350 342 332 325 318 312 308 307 309 308 307 307 306 304 303 301 299 298 297 296 297 297 297
228 214 198 194 200 211 223 230 233 236 240 237 241 43 42 40 30 27 29 26 21 16 15 13 7 2 355 347 340 333 325 316 309 304 301 299 297 295 295 295 295 294 293 293 292 292 292 293 293
226 214 199 196 201 211 221 228 231 234 235 230 220 126 64 47 30 23 22 19 18 17 14 9 6 2 355 348 341 334 327 318 307 300 295 290 288 286 286 288 290 290 290 289 289 290 291 291 292
227 212 200 202 206 213 221 227 230 233 234 231 218 180 105 57 18 5 2 3 6 7 5 1 359 355 349 344 338 332 325 315 303 295 289 285 282 281 280 282 286 287 287 287 288 289 290 289 290
224 209 204 206 210 216 222 227 230 230 236 234 224 206 186 172 333 338 341 348 352 352 353 352 351 349 344 340 333 327 323 316 306 293 285 280 277 277 278 280 281 283 285 287 287 287 287 287 287
222 211 209 210 214 219 224 229 232 233 239 241 231 215 207 222 279 310 321 331 337 339 340 343 340 340 336 333 329 323 320 317 310 300 288 279 274 274 276 279 281 283 285 286 287 287 286 286 285
217 211 212 216 220 225 230 232 236 239 244 248 245 231 224 237 258 286 305 316 323 331 332 332 333 331 328 323 320 318 315 312 309 303 293 284 279 277 278 281 282 284 286 286 287 288 288 288 288
217 215 218 223 226 229 232 237 239 242 250 256 251 240 233 238 251 271 290 302 312 318 322 323 325 324 319 314 309 309 308 305 304 301 297 291 285 280 278 279 282 283 285 285 287 288 289 289 289
223 221 224 228 230 233 237 239 242 245 253 261 256 249 243 245 254 267 281 291 301 308 312 314 313 313 312 308 304 301 300 299 297 295 292 291 287 280 278 278 280 283 283 283 284 285 288 288 288
227 226 225 229 232 236 238 239 246 250 257 262 260 254 251 252 256 264 273 282 293 300 304 307 306 307 308 307 305 300 296 295 292 290 286 285 284 280 279 280 281 284 284 282 282 283 286 287 288
231 229 228 230 235 238 241 240 244 252 257 261 260 257 255 256 260 266 270 275 285 292 297 301 302 303 304 304 303 303 299 296 290 288 284 283 280 280 278 279 279 281 284 283 283 285 288 288 289
235 232 230 230 235 238 242 243 243 248 256 260 260 258 257 258 261 265 265 269 279 288 294 298 301 301 300 302 302 300 296 295 292 287 285 282 280 280 278 279 281 285 288 288 289 288 289 292 293
235 233 231 229 234 238 242 244 244 249 255 259 260 260 259 259 260 261 263 269 277 285 291 296 298 300 298 300 299 299 296 295 295 288 286 287 285 283 280 282 284 288 290 292 294 293 294 295 296
234 234 231 229 231 237 241 244 246 249 254 257 259 259 259 259 259 260 264 269 276 282 287 291 293 295 295 295 295 293 296 294 296 295 295 295 294 292 287 288 288 291 297 298 298 297 297 297 297
235 235 233 229 229 236 241 244 246 249 251 254 257 258 258 258 260 260 263 267 271 277 282 286 290 292 292 292 289 288 291 294 295 297 303 302 299 297 293 292 294 297 300 301 300 299 299 299 298
235 235 234 232 231 235 240 243 244 246 248 252 255 257 257 258 259 260 262 264 268 274 279 282 286 288 288 288 286 288 291 295 299 302 306 305 304 301 298 296 298 299 300 302 302 302 301 300 298
234 234 234 233 233 235 241 246 244 244 246 249 253 255 257 258 258 258 260 263 268 274 279 282 285 286 286 287 286 287 291 295 303 308 308 308 307 304 301 301 301 301 302 304 304 303 302 301 299
229 231 233 234 236 237 239 246 249 245 245 248 251 254 255 257 258 259 262 265 270 275 278 281 283 285 285 286 285 286 290 298 305 310 307 304 304 303 303 303 303 305 304 304 304 302 301 300 299
225 226 230 233 236 239 238 244 250 250 249 250 251 253 255 257 259 262 264 266 270 273 276 277 279 281 283 284 286 289 293 302 305 308 306 304 304 303 305 306 305 305 304 303 302 301 299 298 297
222 224 228 233 236 238 238 242 247 250 250 251 252 253 254 256 258 261 263 266 269 272 274 274 276 278 281 285 290 294 302 306 307 306 306 304 304 303 303 304 303 302 302 301 299 298 297 296 295
219 223 227 233 235 237 237 241 245 247 249 250 251 252 253 256 258 261 264 266 267 269 271 273 276 280 283 288 295 300 302 304 305 305 304 304 304 303 302 300 300 299 299 298 297 296 295 295 294
219 222 226 232 234 236 238 240 245 246 248 249 250 252 254 256 259 262 264 265 266 268 271 274 279 285 288 292 296 299 301 303 304 304 304 303 303 303 301 299 299 298 297 296 295 295 294 294 294
217 222 228 232 236 238 240 243 246 251 252 251 251 253 255 257 259 261 265 267 270 272 275 279 283 287 291 294 296 297 297 299 301 301 302 302 302 302 300 299 298 297 295 294 294 294 293 293 293
221 225 228 232 236 239 243 248 249 253 255 256 257 258 260 262 263 266 269 272 275 277 280 283 285 289 291 292 294 296 296 298 299 300 300 301 301 301 300 298 297 296 295 294 293 293 293 293 293
Height
5877 5880 5882 5885 5887 5888 5889 5890 5892 5893 5893 5893 5892 5891 5891 5890 5890 5892 5890 5887 5887 5887 5886 5886 5886 5886 5886 5885 5885 5885 5886 5886 5887 5887 5888 5889 5890 5890 5891 5891 5892 5893 5893 5894 5895 5895 5896 5896 5896
5875 5878 5881 5883 5884 5886 5888 5889 5891 5891 5892 5892 5891 5890 5890 5889 5889 5888 5887 5887 5886 5886 5886 5886 5885 5885 5885 5884 5884 5884 5884 5885 5885 5886 5886 5887 5888 5888 5889 5889 5890 5891 5891 5892 5892 5893 5893 5894 5894
5873 5876 5878 5881 5883 5885 5887 5888 5890 5891 5892 5891 5890 5890 5889 5888 5888 5887 5887 5887 5886 5886 5886 5885 5885 5885 5885 5884 5884 5884 5884 5884 5884 5885 5885 5885 5886 5886 5887 5887 5888 5888 5889 5889 5890 5890 5890 5891 5891
5871 5874 5876 5879 5882 5884 5885 5886 5888 5890 5890 5890 5889 5889 5888 5888 5888 5888 5887 5887 5886 5886 5886 5885 5885 5885 5884 5884 5883 5883 5883 5883 5883 5884 5884 5884 5884 5885 5885 5885 5886 5886 5887 5887 5887 5887 5888 5888 5889
5868 5871 5874 5877 5880 5882 5883 5884 5886 5888 5889 5889 5889 5888 5888 5888 5888 5888 5888 5887 5887 5886 5886 5886 5885 5884 5884 5883 5883 5883 5883 5882 5882 5882 5882 5883 5883 5883 5883 5883 5884 5884 5884 5884 5884 5884 5885 5885 5885
5866 5869 5872 5875 5879 5880 5881 5882 5884 5886 5888 5888 5888 5887 5887 5888 5888 5888 5888 5887 5887 5887 5886 5886 5885 5884 5883 5883 5883 5882 5882 5882 5881 5881 5881 5881 5881 5881 5881 5881 5882 5882 5882 5882 5882 5881 5882 5882 5882
5865 5867 5869 5873 5876 5877 5878 5879 5882 5884 5886 5886 5887 5886 5887 5888 5888 5888 5888 5888 5887 5887 5886 5886 5885 5884 5883 5882 5882 5881 5881 5881 5881 5880 5880 5880 5880 5879 5879 5879 5879 5879 5879 5879 5879 5879 5879 5879 5879
5862 5865 5867 5870 5873 5875 5875 5877 5879 5882 5884 5885 5885 5886 5886 5888 5888 5888 5888 5888 5887 5887 5886 5885 5884 5884 5883 5882 5881 5881 5880 5880 5879 5879 5879 5878 5878 5878 5878 5877 5877 5877 5876 5876 5876 5876 5876 5876 5876
5860 5864 5865 5868 5870 5871 5872 5874 5877 5880 5882 5883 5884 5885 5886 5887 5887 5888 5887 5887 5887 5887 5886 5885 5884 5883 5882 5882 5881 5880 5879 5879 5878 5878 5878 5877 5877 5876 5876 5875 5875 5874 5874 5873 5873 5873 5873 5873 5872
5858 5861 5863 5865 5867 5868 5869 5871 5875 5878 5880 5882 5883 5883 5884 5886 5886 5887 5887 5887 5887 5886 5885 5884 5883 5883 5882 5881 5880 5879 5878 5878 5877 5877 5876 5876 5875 5874 5874 5873 5873 5872 5871 5871 5870 5870 5869 5869 5869
5856 5858 5859 5861 5863 5864 5866 5869 5872 5876 5878 5880 5881 5881 5882 5884 5885 5886 5886 5886 5886 5885 5885 5884 5883 5882 5882 5881 5880 5879 5878 5877 5876 5875 5874 5873 5873 5872 5871 5871 5870 5869 5869 5868 5867 5866 5866 5865 5865
5853 5855 5856 5857 5859 5861 5863 5867 5870 5874 5877 5878 5879 5879 5880 5881 5883 5884 5885 5885 5885 5884 5884 5883 5883 5882 5881 5880 5879 5877 5876 5875 5874 5873 5872 5871 5870 5869 5869 5868 5867 5866 5865 5865 5864 5863 5862 5861 5860
5850 5851 5852 5854 5856 5858 5861 5864 5868 5872 5874 5875 5876 5877 5878 5879 5881 5882 5883 5884 5884 5883 5882 5882 5881 5880 5879 5878 5877 5876 5874 5873 5871 5870 5869 5868 5867 5866 5866 5865 5864 5863 5862 5861 5860 5858 5857 5856 5855
5845 5847 5848 5851 5853 5856 5859 5862 5865 5869 5871 5872 5873 5875 5876 5877 5879 5880 5881 5882 5882 5881 5880 5880 5879 5878 5877 5876 5874 5873 5871 5870 5868 5867 5866 5865 5864 5863 5862 5861 5860 5859 5857 5856 5855 5854 5852 5851 5850
5841 5844 5846 5849 5851 5853 5856 5859 5863 5865 5867 5869 5870 5872 5873 5875 5876 5878 5879 5879 5879 5879 5878 5877 5876 5875 5874 5872 5870 5869 5867 5866 5864 5863 5861 5860 5859 5858 5856 5855 5854 5853 5852 5851 5849 5848 5846 5845 5844
5837 5841 5843 5846 5848 5849 5854 5857 5859 5860 5862 5864 5866 5867 5870 5872 5873 5875 5876 5877 5877 5876 5875 5874 5873 5871 5870 5868 5866 5864 5863 5861 5859 5857 5856 5854 5853 5851 5850 5849 5848 5847 5845 5844 5843 5841 5840 5838 5837
5833 5837 5840 5842 5844 5846 5849 5853 5855 5856 5857 5859 5861 5863 5865 5867 5869 5871 5872 5873 5873 5873 5872 5871 5869 5867 5865 5863 5861 5859 5857 5855 5852 5850 5849 5847 5845 5844 5843 5842 5841 5839 5838 5837 5836 5834 5833 5831 5829
5829 5832 5835 5837 5839 5841 5843 5848 5851 5851 5852 5854 5856 5858 5859 5862 5865 5867 5868 5869 5869 5869 5868 5867 5865 5863 5860 5858 5855 5852 5849 5847 5845 5843 5842 5840 5838 5836 5835 5834 5833 5832 5831 5829 5828 5827 5825 5824 5822
5822 5826 5829 5833 5834 5835 5838 5841 5845 5846 5847 5849 5851 5852 5854 5857 5859 5860 5862 5863 5864 5864 5864 5862 5860 5857 5855 5852 5848 5845 5841 5839 5838 5835 5833 5832 5830 5828 5827 5826 5825 5824 5823 5822 5820 5819 5817 5816 5814
5814 5818 5823 5828 5829 5829 5831 5834 5839 5841 5842 5844 5846 5847 5849 5851 5852 5854 5856 5857 5858 5858 5857 5856 5854 5852 5849 5846 5843 5839 5835 5832 5829 5826 5824 5824 5823 5821 5819 5819 5818 5816 5815 5813 5812 5810 5808 5807 5805
5807 5812 5816 5820 5821 5821 5824 5828 5833 5835 5836 5838 5840 5842 5842 5844 5846 5848 5849 5850 5851 5851 5851 5849 5848 5845 5842 5839 5836 5832 5828 5824 5822 5820 5818 5818 5817 5815 5813 5811 5810 5809 5808 5806 5804 5801 5799 5797 5795
5801 5805 5808 5811 5814 5815 5817 5820 5826 5829 5831 5833 5834 5835 5836 5837 5839 5841 5842 5843 5844 5844 5843 5842 5841 5838 5836 5832 5828 5824 5820 5816 5815 5812 5812 5811 5809 5808 5806 5804 5803 5801 5799 5797 5795 5792 5789 5787 5784
5794 5797 5799 5802 5805 5808 5810 5812 5819 5822 5825 5827 5828 5828 5829 5831 5832 5834 5835 5836 5837 5837 5836 5834 5833 5831 5828 5824 5821 5818 5814 5810 5808 5806 5804 5804 5803 5801 5799 5797 5795 5793 5790 5788 5785 5782 5779 5776 5772
5786 5789 5792 5795 5798 5803 5806 5807 5811 5816 5818 5820 5821 5821 5822 5824 5825 5827 5828 5829 5829 5829 5828 5827 5825 5823 5820 5817 5814 5810 5806 5802 5801 5799 5798 5796 5796 5794 5792 5789 5786 5784 5781 5778 5775 5771 5768 5764 5760
5779 5783 5786 5789 5792 5797 5801 5802 5805 5808 5810 5812 5813 5814 5815 5817 5818 5819 5821 5822 5822 5822 5821 5819 5817 5815 5813 5810 5805 5801 5799 5796 5793 5792 5791 5789 5788 5785 5783 5780 5777 5775 5771 5768 5764 5760 5756 5752 5747
5774 5778 5782 5785 5788 5792 5794 5796 5799 5801 5803 5804 5806 5807 5808 5809 5811 5812 5813 5814 5814 5814 5813 5812 5810 5807 5804 5801 5798 5794 5791 5788 5786 5785 5784 5782 5779 5777 5774 5771 5768 5764 5760 5756 5751 5747 5743 5738 5733
5770 5773 5777 5780 5782 5786 5788 5791 5793 5794 5796 5797 5799 5800 5801 5803 5804 5805 5806 5806 5807 5806 5805 5804 5802 5799 5795 5793 5790 5787 5784 5782 5780 5777 5775 5773 5770 5767 5763 5760 5756 5752 5747 5743 5738 5733 5728 5723 5718
5766 5769 5772 5775 5777 5780 5782 5785 5787 5788 5790 5791 5793 5794 5795 5797 5798 5799 5799 5799 5799 5799 5798 5795 5794 5791 5788 5785 5782 5779 5776 5774 5772 5769 5766 5762 5759 5755 5751 5747 5742 5738 5733 5728 5723 5718 5713 5708 5702
5761 5764 5767 5770 5772 5775 5777 5782 5782 5783 5784 5786 5787 5788 5790 5791 5791 5792 5792 5792 5791 5790 5789 5787 5785 5783 5780 5777 5774 5771 5768 5765 5762 5759 5755 5751 5747 5742 5738 5733 5728 5723 5718 5713 5708 5703 5698 5692 5687
5755 5758 5762 5765 5768 5770 5773 5778 5776 5778 5779 5780 5781 5782 5783 5784 5785 5785 5785 5784 5783 5782 5780 5779 5777 5774 5771 5768 5765 5762 5758 5755 5751 5747 5743 5738 5733 5728 5723 5718 5714 5708 5704 5698 5693 5688 5683 5677 5672